Other Public Products
Issued by NWS Grand Forks, ND

Home | Current Version | Previous Version | Graphics & Text | Print | Product List | Glossary Off
Versions: 1 2 3 4 5 6 7 8 9 10 11 12 13 14 15 16 17 18 19 20 21 22 23 24 25 26 27 28 29 30 31 32 33 34 35 36 37 38 39 40 41 42 43 44 45 46 47 48 49 50

205
FPUS83 KFGF 312010
OPUFGF
PRAIRIE TO PINES WEATHER ROUNDUP
NATIONAL WEATHER SERVICE EASTERN NORTH DAKOTA/GRAND FORKS ND
300 PM CDT TUE MAY 31 2016

 **SATELLITE DATA USED TO AUGMENT SKY COVER AT AUTOMATED STATIONS**
 *****  WEATHER ACROSS EASTERN NORTH DAKOTA  *****

CITY           SKY/WX    TMP DP  RH WIND       PRES   REMARKS
GRAND FORKS    PTSUNNY   64  50  60 SW21G28   29.68F
GRAND FORKS AF PTSUNNY   65  49  55 SW17G23   29.69S
GRAND CITY NWS   N/A     64 N/A N/A SW24        N/A
BUXTON           N/A     66  48  51 SW17        N/A
DEVILS LAKE    MOSUNNY   63  49  60 SW12      29.66F
FARGO          PTSUNNY   70  45  40 SW22G29   29.73F
WAHPETON ARPT  PTCLDY    68  41  37 SW18G25   29.78F
$$

 *****  WEATHER ACROSS CENTRAL AND WESTERN NORTH DAKOTA  *****

CITY           SKY/WX    TMP DP  RH WIND       PRES   REMARKS
JAMESTOWN      CLOUDY    64  47  53 SW17G23   29.67F
BISMARCK       CLOUDY    58  51  78 SW15      29.65F
MINOT          CLOUDY    66  47  50 S7        29.62R
MINOT AFB      PTSUNNY   64  54  70 N14       29.60R
GARRISON         N/A     60  49  66 W5        29.63R
WILLISTON      LGT RAIN  54  50  86 N28G36    29.84R
DICKINSON      LGT RAIN  50  47  89 NW32G43   29.73R
HETTINGER      LGT RAIN  51  48  89 NW29G40   29.81R
$$

 *****  OTHER OBSERVATIONS NORTHEAST NORTH DAKOTA  *****

CITY           SKY/WX    TMP DP  RH WIND       PRES   REMARKS
WALHALLA       FAIR      66  63  88 S15G21    29.64F
LANGDON        CLOUDY    61  55  82 S16       29.66F
CAVALIER       MOCLDY    64  57  77 SW16G24   29.65S
GRAFTON        MOCLDY    66  55  68 S15G21    29.69S
CANDO          NOT AVBL
FORT TOTTEN    NOT AVBL
ROLLA          MOCLDY    63  52  67 S9        29.64S
RUGBY          CLOUDY    59  50  72 S10       29.64S
 ***** THE ABOVE OBSERVATIONS ARE NON NWS ARE NOT QUALITY
        CONTROLLED AND MAY MIS-REPORT RAIN FOR SNOW...
$$

 *****  OTHER OBSERVATIONS SOUTHEAST NORTH DAKOTA *****

CITY           SKY/WX    TMP DP  RH WIND       PRES   REMARKS
COOPERSTOWN    NOT AVBL
VALLEY CITY    MOCLDY    64  46  52 SW17G30   29.72F
OAKES            N/A    N/A N/A N/A MISG        N/A
GWINNER        MOCLDY    64  46  52 SW20      29.76F
SHEYENNE NWR     N/A     66  45  46 SW16      29.95
BUFFALO          N/A     65  43  44 SW16        N/A
WYNDMERE         N/A     70  46  43 SW21        N/A
 ***** THE ABOVE OBSERVATIONS ARE NON NWS ARE NOT QUALITY
       CONTROLLED AND MAY MIS-REPORT RAIN FOR SNOW...
$$

  *****  WEATHER ACROSS NORTHERN MINNESOTA  *****

CITY           SKY/WX    TMP DP  RH WIND       PRES   REMARKS
FLAG ISLAND    DRIZZLE   52  50  93 E7G18     29.79F
WARROAD        CLOUDY    54  50  87 E13       29.76F
ROSEAU         CLOUDY    55  52  88 SE16      29.74F
HALLOCK        PTSUNNY   68  61  77 S15       29.66F
THF RVR FALLS  PTSUNNY   66  52  59 SW17      29.72F
HALSTAD        NOT AVBL
FOSSTON        MOSUNNY   66  57  72 S20G26    29.74S
BAUDETTE         N/A     52  49  89 SE12G21   29.80S
WASKISH        CLOUDY    55  54  94 SE12      29.79F
CROOKSTON      CLOUDY    66  52  59 SW21      29.72F
$$
  *****  WEATHER ACROSS CENTRAL AND WEST MINNESOTA  *****

CITY           SKY/WX    TMP DP  RH WIND       PRES   REMARKS
BEMIDJI        CLOUDY    64  57  80 SE9       29.76F
PARK RAPIDS    MOSUNNY   69  52  54 SW14      29.77F
WADENA         MOSUNNY   66  52  59 SW18      29.79F
DETROIT LAKES  MOSUNNY   66  50  55 SW17G24   29.78F
MOORHEAD       MOSUNNY   66  48  52 SW15G21   29.75F
FERGUS FALLS   PTSUNNY   66  48  52 W20G25    29.76F
ELBOW LAKE     MOCLDY    68  50  52 SW12G21   29.81F
MORRIS MN      MOSUNNY   72  48  43 W15G24    29.82S
STAPLES        SUNNY     70  52  52 SW14      29.80F
WHEATON        SUNNY     72  50  46 SW18G25   29.82F
$$
  *****  WEATHER ELSEWHERE ACROSS MINNESOTA  *****

CITY           SKY/WX    TMP DP  RH WIND       PRES   REMARKS
DULUTH         LGT RAIN  46  45  96 E9        29.90F
INTRNTL FALLS  CLOUDY    50  48  93 E15       29.84F FOG
ELY            LGT RAIN  48  46  93 SE16G24   29.90F
CLOQUET        CLOUDY    46  45  93 E14       29.89F
BRAINERD       PTSUNNY   70  57  63 S9        29.81F
HIBBING        CLOUDY    50  49  96 SE12      29.87F FOG
ALEXANDRIA     MOSUNNY   68  49  50 SW16      29.83F
SAINT CLOUD    CLOUDY    71  59  65 SW13      29.83F
MINNEAPOLIS    LGT RAIN  70  61  73 W10       29.85F
$$

  *****  WEATHER ACROSS SOUTH DAKOTA  *****

CITY           SKY/WX    TMP DP  RH WIND       PRES   REMARKS
SIOUX FALLS    CLOUDY    69  46  43 W13G20    29.90F
BROOKINGS      SUNNY     69  45  41 W20G28    29.86F
WATERTOWN      MOSUNNY   70  45  40 W21G33    29.83F
HURON          PTSUNNY   70  47  43 SW18G28   29.84F
SISSETON         N/A     68  46  45 W21       29.79F
ABERDEEN       CLOUDY    66  45  46 SW24G37   29.79F
MITCHELL       SUNNY     72  48  42 SW15G22   29.88F
PIERRE         MOSUNNY   68  43  40 W30G47    29.86F
MOBRIDGE       LGT RAIN  58  49  72 SW20G28   29.74F
RAPID CITY     CLOUDY    64  39  39 NW29G36   29.96S
$$

  *****  SOME WEATHER IN NEARBY STATES *****

CITY           SKY/WX    TMP DP  RH WIND       PRES   REMARKS
GLASGOW MT     PTSUNNY   64  42  44 N28G39    30.00R
GREAT FALLS MT PTSUNNY   61  35  37 MISG      30.21F
CHEYENNE WY    CLOUDY    59  41  51 NE6       30.11S
SCOTTSBLUFF NE MOSUNNY   69  39  33 W9G22     30.06F
OMAHA NE       CLOUDY    73  59  61 NW14      29.93R
DES MOINES IA  CLOUDY    81  62  52 S13G21    29.86F
DAVENPORT IA   CLOUDY    78  62  57 E9        29.94F
CHICAGO IL     CLOUDY    79  61  53 NW16      29.96S
EAU CLAIRE WI  PTSUNNY   79  59  50 S13G25    29.80F
LA CROSSE WI   CLOUDY    83  61  47 S15       29.84F
$$

  *****  SOME NATIONAL WEATHER *****

CITY           SKY/WX    TMP DP  RH WIND       PRES   REMARKS
LA GUARDIA NY  MOSUNNY   83  66  56 S15       29.92S
RALEIGH NC     PTSUNNY   83  67  58 NE10G17   29.93F
ATLANTA GA     MOSUNNY   90  62  39 E9        29.93F HX  90
NEW ORLEANS LA MOSUNNY   91  69  48 S7        29.92F HX  96
OKLAHOMA CITY  CLOUDY    79  68  69 NE7       29.89R
ALBUQUERQUE NM CLOUDY    74  40  29 SE20      29.99S
SALT LAKE CITY MOSUNNY   75  35  23 N14       30.07F
LOS ANGELES CA PTSUNNY   68  57  68 W9        29.88F HAZE
BOISE ID       SUNNY     74  26  16 VRB3      30.08F
SEATTLE WA     MOSUNNY   73  50  44 NW9       30.07F
$$

*** WEATHER ACROSS MANITOBA...SASKATCHEWAN AND ONTARIO ***
                ***ONTARIO***

CITY           SKY/WX    TMP DP  RH WIND       PRES   REMARKS
GERALDTON      PTSUNNY   63  36  36 E13G20    30.11F
THUNDER BAY    CLOUDY    48  43  81 E14       30.07F
SIOUX LOOKOUT  LGT RAIN  48  45  87 E8        29.97F FOG
TORONTO        PTSUNNY   77  52  41 N13G23    29.99S
BIG TROUT LK   SUNNY     54  32  43 E9        30.20F
PICKLE LAKE    CLOUDY    59  27  29 E18G26    30.08F
DRYDEN         LGT RAIN  48  46  93 E15G23    29.91F
KENORA         LGT RAIN  50  48  93 SE17G24   29.85R FOG
$$
                *** MANITOBA***

CITY           SKY/WX    TMP DP  RH WIND       PRES   REMARKS
BRANDON          N/A     54  52  94 NE31G43   29.66S
DAUPHIN        LGT RAIN  52  50  93 NE23G29   29.83F
ISLAND LAKE    CLOUDY    59  36  41 E8G21     30.09F
PILOT MOUND      N/A     66  55  68 S10         N/A
THE PAS        PTSUNNY   63  39  42 E7G17     30.05F
THOMPSON       PTSUNNY   59  32  36 E9G21     30.13F
WINNIPEG       LGT RAIN  55  52  88 E20G28    29.71S
LYNN LAKE      PTSUNNY   63  39  42 SE8       30.11F
CHURCHILL      PTSUNNY   45  30  57 S12G18    30.31F
GILLAM         MOSUNNY   50  28  43 NE9       30.22F
$$
                ***SASKATCHEWAN***

CITY           SKY/WX    TMP DP  RH WIND       PRES   REMARKS
ESTEVAN        LGT RAIN  52  50  93 N18G26    29.81R FOG
KINDERSLEY     PTSUNNY   61  46  59 NW14      30.09S
LLOYDMINSTER   PTSUNNY   63  48  59 N9        30.10F
PRINCE ALBERT  CLOUDY    59  43  55 E14       30.05F
REGINA         CLOUDY    54  50  87 N13G20    29.94S
YORKTON        MOSUNNY   55  45  67 NE24G32   29.90R   C1F1C2F2C3F3C4F4C5F5C6F6C7F7C8F8C9F9CaFaCbFbCcFcCdFdCe!



USA.gov is the U.S. government's official web portal to all federal, state and local government web resources and services.